Other Public Products
Issued by NWS Charleston, SC

Current Version | Previous Version | Text Only | Print | Product List | Glossary Off
Versions: 1 2 3 4 5 6 7 8 9 10 11 12 13 14 15 16 17 18 19 20 21 22 23 24 25 26 27 28 29 30 31 32 33 34 35 36 37 38 39 40 41 42 43 44 45 46 47 48 49 50

000
FPUS82 KCHS 241712
OPUCHS

TEST...KCHS/KSAV Gateway Observations...TEST
National Weather Service Charleston SC
100 PM EDT MON JUL 24 2017

NOTE: "fair" indicates few or no clouds below 12,000 feet with no
significant weather and/or obstructions to visibility.

SCZ050-WAZ558-NCZ071-TXZ119-213-PAZ071-DCZ001-FLZ074-172-MI076-
NYZ176-178-MAZ016-IL014-TNZ027-NJZ106-GAZ044-MD014-241800-

...Gateway Observations for Charleston International...

CITY           SKY/WX    TMP DP  RH WIND       PRES   REMARKS
Chas Airport   PTSUNNY   79  73  82 SW7       29.98S
Seattle        MOSUNNY   67  53  61 W5        30.05F
Charlotte      PTSUNNY   87  70  56 W3        29.97F HX  92
Dallas DFW     PTSUNNY   84  74  71 S7        29.99F HX  91
Dallas Love    PTSUNNY   82  73  74 SE8       30.01S
Philladelphia  PTSUNNY   83  68  60 N7        29.80R
Wash National  FAIR      87  70  56 NE6       29.83S HX  92
Baltimore      FAIR      86  69  56 W7        29.81F HX  90
Miami          PTSUNNY   92  74  55 SE9       30.09F HX 101
Detroit        CLOUDY    69  57  65 N12       29.96R
Newark         CLOUDY    68  60  75 N20       29.83R
Laguardia      LGT RAIN  64  61  90 N13       29.82R
J F K          CLOUDY    65  63  93 N17       29.81R
Boston Logan   LGT RAIN  58  56  93 NE13G26   29.91S
Ft. Lauderdale MOSUNNY   90  77  65 SE12G21   30.09S HX 103
Chicago O`Hare PTSUNNY   71  56  58 N13       30.04R
Chicago Midway CLOUDY    71  59  65 N14       30.03R
Houston Bush   PTSUNNY   90  73  57 SW9       30.02S HX  98
Houston Hobby  CLOUDY    90  72  55 S6        30.02R HX  97
Nashville      CLOUDY    88  71  57 VRB7      29.98S HX  94
Atlanta        PTSUNNY   88  73  61 SW8       30.00S HX  95

$$

GAZ044-118-TXZ119-213-NCZ071-DCZ001-MDZ014-506-PAZ021-071-NJZ106-
NYZ176-178-MAZ106-OHZ011-021-055-MIZ076-KYZ091-ILZ014-INZ047-
MNZ060-ONZ431-241800-

...Gateway Observations for Savannah International...

CITY           SKY/WX    TMP DP  RH WIND       PRES   REMARKS
Savannah Arpt  PTSUNNY   87  74  64 SW8       30.00S HX  95
Atlanta        PTSUNNY   88  73  61 SW8       30.00S HX  95
Charlotte      PTSUNNY   87  70  56 W3        29.97F HX  92
Dallas DFW     PTSUNNY   84  74  71 S7        29.99F HX  91
Houston Bush   PTSUNNY   90  73  57 SW9       30.02S HX  98
Wash National  FAIR      87  70  56 NE6       29.83S HX  92
Wash Dulles    FAIR      86  67  52 W12G18    29.84S
Baltimore      FAIR      86  69  56 W7        29.81F HX  90
Philadelphia   PTSUNNY   83  68  60 N7        29.80R
Newark         CLOUDY    68  60  75 N20       29.83R
Laguardia      LGT RAIN  64  61  90 N13       29.82R
J F K          CLOUDY    65  63  93 N17       29.81R
Boston         LGT RAIN  58  56  93 NE13G26   29.91S
Pittsburg      PTSUNNY   75  71  87 W8        29.87S
Akron          PTSUNNY   77  64  64 N16G24    29.90R
Cleveland      CLOUDY    73  60  63 NW15      29.94R
Cincinnati     FAIR      83  66  56 NW12      29.95R
Columbus       FAIR      80  66  63 N15       29.91S
Detroit        CLOUDY    69  57  65 N12       29.96R
Chicago O`Hare PTSUNNY   71  56  58 N13       30.04R
Minneapolis    PTSUNNY   73  58  59 S7        30.06F
Indianapolis   FAIR      80  66  62 NW10      29.97R
Toronto Canada LGT RAIN  68  63  83 SE2       29.77S

$$




USA.gov is the U.S. government's official web portal to all federal, state and local government web resources and services.